KLM58N LOWW-EHAM

Flight info

Callsign KLM58N
Flight time 1h 25m
Altitude 36000
Route BUWUT DCT DITIS DCT VARIK DCT KATCE DCT NORKU
Aircraft B738/M-SDE2E3FGHIRWXY/LB1

Departure

Time 2026-05-04 12:23
Airport Vienna International Airport (LOWW)

Arrival

Time 2026-05-04 13:49
Airport Amsterdam Airport Schiphol (EHAM)
Time Latitude Longitude Altitude Speed Heading
2026-05-04 11:51 48.11973 16.55844 608 ft 0 kts 296°
2026-05-04 12:13 48.11968 16.55861 608 ft 4 kts 293°
2026-05-04 12:14 48.11968 16.55955 608 ft 1 kts 206°
2026-05-04 12:16 48.11966 16.55954 608 ft 1 kts 206°
2026-05-04 12:17 48.11924 16.55922 608 ft 11 kts 206°
2026-05-04 12:17 48.11853 16.55870 608 ft 11 kts 206°
2026-05-04 12:17 48.11785 16.55820 618 ft 11 kts 205°
2026-05-04 12:17 48.11715 16.55790 619 ft 11 kts 167°
2026-05-04 12:18 48.11668 16.55875 612 ft 12 kts 116°
2026-05-04 12:18 48.11627 16.55998 614 ft 15 kts 116°
2026-05-04 12:18 48.11576 16.56152 615 ft 18 kts 116°
2026-05-04 12:18 48.11515 16.56340 615 ft 22 kts 116°
2026-05-04 12:19 48.11444 16.56555 614 ft 24 kts 116°
2026-05-04 12:19 48.11370 16.56784 619 ft 24 kts 115°
2026-05-04 12:19 48.11297 16.57005 619 ft 23 kts 117°
2026-05-04 12:19 48.11238 16.57185 614 ft 15 kts 115°
2026-05-04 12:20 48.11276 16.57302 617 ft 14 kts 26°
2026-05-04 12:20 48.11365 16.57362 616 ft 14 kts 25°
2026-05-04 12:20 48.11446 16.57426 619 ft 13 kts 27°
2026-05-04 12:20 48.11541 16.57455 608 ft 17 kts 353°
2026-05-04 12:21 48.11671 16.57403 608 ft 21 kts 344°
2026-05-04 12:21 48.11807 16.57343 614 ft 20 kts 343°
2026-05-04 12:21 48.11931 16.57292 608 ft 15 kts 349°
2026-05-04 12:21 48.12001 16.57358 608 ft 11 kts 67°
2026-05-04 12:22 48.12016 16.57465 619 ft 10 kts 93°
2026-05-04 12:22 48.11998 16.57570 608 ft 11 kts 103°
2026-05-04 12:22 48.11979 16.57701 608 ft 15 kts 105°
2026-05-04 12:22 48.11908 16.57844 608 ft 21 kts 151°
2026-05-04 12:23 48.11598 16.57982 618 ft 83 kts 165°
2026-05-04 12:23 48.10830 16.58309 613 ft 147 kts 163°
2026-05-04 12:23 48.09730 16.58795 1034 ft 168 kts 163°
2026-05-04 12:23 48.08637 16.59215 2182 ft 156 kts 165°
2026-05-04 12:24 48.07531 16.59648 2939 ft 176 kts 164°
2026-05-04 12:24 48.06301 16.60300 3406 ft 198 kts 155°
2026-05-04 12:24 48.05226 16.61654 3988 ft 212 kts 130°
2026-05-04 12:24 48.04573 16.63693 4673 ft 226 kts 106°
2026-05-04 12:25 48.04589 16.66084 5500 ft 237 kts 78°
2026-05-04 12:25 48.05362 16.68299 6275 ft 249 kts 50°
2026-05-04 12:25 48.06744 16.69919 6969 ft 260 kts 36°
2026-05-04 12:25 48.08327 16.71544 7268 ft 290 kts 36°
2026-05-04 12:26 48.10008 16.73335 7912 ft 300 kts 37°
2026-05-04 12:26 48.11683 16.75168 8774 ft 304 kts 37°
2026-05-04 12:26 48.13387 16.77061 9618 ft 306 kts 37°
2026-05-04 12:26 48.15270 16.78582 10379 ft 313 kts 15°
2026-05-04 12:27 48.17499 16.78820 10671 ft 333 kts 352°
2026-05-04 12:27 48.19872 16.78244 10891 ft 357 kts 348°
2026-05-04 12:27 48.22357 16.77522 11076 ft 379 kts 347°
2026-05-04 12:27 48.25005 16.76751 11431 ft 394 kts 348°
2026-05-04 12:28 48.26840 16.76240 11879 ft 398 kts 348°
2026-05-04 12:28 48.29572 16.75507 12637 ft 400 kts 348°
2026-05-04 12:28 48.32287 16.74791 13348 ft 402 kts 349°
2026-05-04 12:28 48.35018 16.73822 13980 ft 404 kts 336°
2026-05-04 12:29 48.37507 16.71881 14686 ft 403 kts 329°
2026-05-04 12:29 48.39977 16.69838 15373 ft 406 kts 330°
2026-05-04 12:29 48.42450 16.67733 16015 ft 408 kts 322°
2026-05-04 12:29 48.44452 16.64748 16587 ft 406 kts 303°
2026-05-04 12:30 48.45742 16.60983 17227 ft 404 kts 289°
2026-05-04 12:30 48.46717 16.57005 17871 ft 406 kts 288°
2026-05-04 12:30 48.47673 16.52976 18436 ft 409 kts 288°
2026-05-04 12:30 48.48624 16.48969 18959 ft 413 kts 288°
2026-05-04 12:31 48.49609 16.44866 19450 ft 417 kts 288°
2026-05-04 12:31 48.50612 16.40738 19986 ft 420 kts 288°
2026-05-04 12:31 48.51629 16.36583 20501 ft 422 kts 289°
2026-05-04 12:31 48.52653 16.32406 20981 ft 426 kts 289°
2026-05-04 12:32 48.53686 16.28189 21432 ft 429 kts 289°
2026-05-04 12:32 48.55753 16.19727 22342 ft 435 kts 289°
2026-05-04 12:32 48.56801 16.15421 22741 ft 438 kts 289°
2026-05-04 12:33 48.57878 16.11100 23155 ft 441 kts 290°
2026-05-04 12:33 48.59067 16.06816 23566 ft 444 kts 292°
2026-05-04 12:33 48.60322 16.02517 23946 ft 447 kts 292°
2026-05-04 12:33 48.61589 15.98212 24326 ft 449 kts 292°
2026-05-04 12:34 48.62843 15.93925 24711 ft 451 kts 292°
2026-05-04 12:34 48.64106 15.89558 25097 ft 453 kts 292°
2026-05-04 12:34 48.65360 15.85178 25482 ft 455 kts 292°
2026-05-04 12:34 48.66612 15.80777 25857 ft 456 kts 292°
2026-05-04 12:35 48.67868 15.76341 26196 ft 458 kts 292°
2026-05-04 12:35 48.69126 15.71894 26503 ft 460 kts 292°
2026-05-04 12:35 48.70376 15.67472 26839 ft 461 kts 292°
2026-05-04 12:35 48.71639 15.62993 27141 ft 463 kts 292°
2026-05-04 12:36 48.72907 15.58490 27458 ft 464 kts 292°
2026-05-04 12:36 48.74174 15.53977 27879 ft 462 kts 292°
2026-05-04 12:36 48.75409 15.49566 28364 ft 459 kts 292°
2026-05-04 12:36 48.76654 15.45112 28814 ft 457 kts 292°
2026-05-04 12:37 48.77892 15.40679 29239 ft 455 kts 292°
2026-05-04 12:37 48.79128 15.36243 29606 ft 455 kts 292°
2026-05-04 12:37 48.80366 15.31842 29999 ft 453 kts 294°
2026-05-04 12:37 48.81946 15.27751 30400 ft 453 kts 304°
2026-05-04 12:38 48.83841 15.23911 30816 ft 452 kts 306°
2026-05-04 12:38 48.85744 15.20123 31274 ft 448 kts 306°
2026-05-04 12:38 48.87572 15.16363 31622 ft 447 kts 304°
2026-05-04 12:38 48.89387 15.12527 31913 ft 447 kts 304°
2026-05-04 12:39 48.91239 15.08731 32251 ft 446 kts 306°
2026-05-04 12:39 48.93166 15.05049 32623 ft 444 kts 308°
2026-05-04 12:39 48.95127 15.01420 32983 ft 442 kts 308°
2026-05-04 12:39 48.97091 14.97815 33312 ft 441 kts 308°
2026-05-04 12:40 48.99044 14.94219 33616 ft 440 kts 308°
2026-05-04 12:40 49.00987 14.90614 33928 ft 439 kts 308°
2026-05-04 12:40 49.02913 14.87019 34284 ft 436 kts 307°
2026-05-04 12:40 49.04803 14.83472 34540 ft 436 kts 307°
2026-05-04 12:41 49.06713 14.79874 34734 ft 437 kts 307°
2026-05-04 12:41 49.08624 14.76264 35015 ft 436 kts 307°
2026-05-04 12:41 49.10530 14.72660 35284 ft 435 kts 307°
2026-05-04 12:41 49.12427 14.69065 35490 ft 435 kts 307°
2026-05-04 12:42 49.14327 14.65457 35683 ft 436 kts 307°
2026-05-04 12:42 49.16228 14.61845 35915 ft 435 kts 307°
2026-05-04 12:42 49.18108 14.58269 35985 ft 438 kts 307°
2026-05-04 12:43 49.21922 14.51003 35983 ft 437 kts 307°
2026-05-04 12:43 49.25705 14.43773 35997 ft 433 kts 307°
2026-05-04 12:44 49.29453 14.36588 35997 ft 430 kts 306°
2026-05-04 12:44 49.33188 14.29412 36002 ft 430 kts 306°
2026-05-04 12:45 49.36890 14.22281 35996 ft 429 kts 306°
2026-05-04 12:45 49.40612 14.15087 35995 ft 429 kts 306°
2026-05-04 12:46 49.44326 14.07891 35995 ft 430 kts 306°
2026-05-04 12:46 49.48031 14.00696 35990 ft 431 kts 306°
2026-05-04 12:47 49.51762 13.93427 35995 ft 433 kts 306°
2026-05-04 12:47 49.55496 13.86140 35993 ft 433 kts 306°
2026-05-04 12:48 49.59205 13.78874 35987 ft 434 kts 306°
2026-05-04 12:48 49.62945 13.71528 35992 ft 435 kts 306°
2026-05-04 12:49 49.66688 13.64157 35992 ft 435 kts 305°
2026-05-04 12:49 49.70396 13.56835 35989 ft 435 kts 305°
2026-05-04 12:50 49.74126 13.49447 35991 ft 435 kts 305°
2026-05-04 12:50 49.77847 13.42060 35994 ft 435 kts 305°
2026-05-04 12:51 49.81559 13.34667 35988 ft 434 kts 305°
2026-05-04 12:51 49.85240 13.27315 35989 ft 434 kts 305°
2026-05-04 12:52 49.88934 13.19917 36000 ft 433 kts 305°
2026-05-04 12:52 49.92629 13.12491 35997 ft 433 kts 305°
2026-05-04 12:53 49.96312 13.05078 36003 ft 433 kts 304°
2026-05-04 12:53 49.99973 12.97685 36001 ft 434 kts 304°
2026-05-04 12:54 50.03653 12.90235 36002 ft 434 kts 304°
2026-05-04 12:54 50.07304 12.82815 36001 ft 435 kts 304°
2026-05-04 12:55 50.10981 12.75325 35999 ft 435 kts 304°
2026-05-04 12:55 50.14657 12.67817 36002 ft 436 kts 304°
2026-05-04 12:56 50.18331 12.60289 35999 ft 436 kts 303°
2026-05-04 12:56 50.21992 12.52766 35997 ft 437 kts 303°
2026-05-04 12:57 50.25669 12.45194 36011 ft 437 kts 303°
2026-05-04 12:57 50.29340 12.37609 36006 ft 437 kts 303°
2026-05-04 12:58 50.33012 12.30094 36017 ft 437 kts 304°
2026-05-04 12:58 50.36725 12.22528 36014 ft 437 kts 304°
2026-05-04 12:59 50.40401 12.15001 36012 ft 437 kts 304°
2026-05-04 12:59 50.44102 12.07392 36015 ft 437 kts 303°
2026-05-04 13:00 50.47784 11.99801 36018 ft 437 kts 303°
2026-05-04 13:00 50.51449 11.92219 36017 ft 436 kts 303°
2026-05-04 13:01 50.55094 11.84657 36017 ft 436 kts 303°
2026-05-04 13:01 50.58761 11.77027 36021 ft 436 kts 303°
2026-05-04 13:02 50.62426 11.69377 36013 ft 437 kts 303°
2026-05-04 13:02 50.66061 11.61768 36007 ft 437 kts 303°
2026-05-04 13:03 50.69719 11.54098 36016 ft 437 kts 303°
2026-05-04 13:03 50.73374 11.46402 36010 ft 438 kts 303°
2026-05-04 13:04 50.77000 11.38745 36001 ft 438 kts 302°
2026-05-04 13:04 50.80644 11.31029 35997 ft 437 kts 302°
2026-05-04 13:05 50.84271 11.23327 36002 ft 437 kts 302°
2026-05-04 13:05 50.87881 11.15637 35999 ft 436 kts 302°
2026-05-04 13:06 50.91500 11.07905 36000 ft 436 kts 302°
2026-05-04 13:06 50.95109 11.00170 35985 ft 436 kts 302°
2026-05-04 13:07 50.98714 10.92424 35993 ft 435 kts 302°
2026-05-04 13:07 51.02288 10.84722 35990 ft 435 kts 302°
2026-05-04 13:08 51.05880 10.76955 35987 ft 435 kts 302°
2026-05-04 13:08 51.09462 10.69187 35993 ft 435 kts 301°
2026-05-04 13:09 51.13032 10.61421 35991 ft 435 kts 301°
2026-05-04 13:09 51.16584 10.53673 35989 ft 435 kts 301°
2026-05-04 13:10 51.20156 10.45860 35995 ft 435 kts 301°
2026-05-04 13:10 51.23722 10.38037 35977 ft 435 kts 301°
2026-05-04 13:11 51.26779 10.29861 35995 ft 428 kts 291°
2026-05-04 13:11 51.29362 10.21281 35976 ft 428 kts 291°
2026-05-04 13:12 51.31922 10.12727 35975 ft 429 kts 291°
2026-05-04 13:12 51.34511 10.04133 35972 ft 428 kts 291°
2026-05-04 13:13 51.37100 9.95565 35976 ft 428 kts 291°
2026-05-04 13:13 51.39696 9.86964 35975 ft 427 kts 291°
2026-05-04 13:14 51.42254 9.78441 35969 ft 427 kts 291°
2026-05-04 13:14 51.44835 9.69804 35963 ft 428 kts 291°
2026-05-04 13:15 51.47393 9.61253 35968 ft 428 kts 290°
2026-05-04 13:15 51.49532 9.54030 35973 ft 427 kts 290°
2026-05-04 13:16 51.52074 9.45425 35961 ft 428 kts 290°
2026-05-04 13:16 51.54633 9.36747 35962 ft 428 kts 290°
2026-05-04 13:17 51.57168 9.28121 35964 ft 429 kts 290°
2026-05-04 13:17 51.59716 9.19422 35966 ft 429 kts 290°
2026-05-04 13:18 51.62243 9.10763 35974 ft 429 kts 290°
2026-05-04 13:18 51.64775 9.02058 35963 ft 429 kts 290°
2026-05-04 13:19 51.67304 8.93326 35972 ft 430 kts 290°
2026-05-04 13:19 51.69826 8.84587 35972 ft 430 kts 290°
2026-05-04 13:20 51.72339 8.75849 35973 ft 429 kts 290°
2026-05-04 13:20 51.74828 8.67152 35961 ft 429 kts 290°
2026-05-04 13:21 51.77334 8.58379 35977 ft 429 kts 289°
2026-05-04 13:21 51.79835 8.49591 35972 ft 429 kts 289°
2026-05-04 13:22 51.82303 8.40876 35974 ft 429 kts 289°
2026-05-04 13:22 51.84780 8.32101 35971 ft 428 kts 289°
2026-05-04 13:23 51.87251 8.23317 35971 ft 428 kts 289°
2026-05-04 13:23 51.89717 8.14511 35974 ft 428 kts 289°
2026-05-04 13:24 51.92159 8.05762 35973 ft 428 kts 289°
2026-05-04 13:24 51.94610 7.96951 35970 ft 427 kts 289°
2026-05-04 13:25 51.98251 7.83795 35974 ft 428 kts 289°
2026-05-04 13:25 52.00684 7.74965 35971 ft 428 kts 288°
2026-05-04 13:26 52.03097 7.66168 35971 ft 428 kts 289°
2026-05-04 13:26 52.05520 7.57310 35962 ft 428 kts 289°
2026-05-04 13:27 52.07924 7.48479 35853 ft 430 kts 288°
2026-05-04 13:27 52.09140 7.43989 35278 ft 435 kts 288°
2026-05-04 13:27 52.10359 7.39492 34618 ft 433 kts 288°
2026-05-04 13:28 52.11573 7.35009 33935 ft 432 kts 288°
2026-05-04 13:28 52.12785 7.30526 33229 ft 432 kts 288°
2026-05-04 13:28 52.13994 7.26039 32501 ft 432 kts 288°
2026-05-04 13:28 52.15204 7.21541 31751 ft 433 kts 288°
2026-05-04 13:29 52.16394 7.17102 30992 ft 434 kts 288°
2026-05-04 13:29 52.17604 7.12582 30200 ft 434 kts 288°
2026-05-04 13:29 52.18811 7.08068 29377 ft 435 kts 288°
2026-05-04 13:29 52.20023 7.03531 28498 ft 436 kts 288°
2026-05-04 13:30 52.21241 6.98995 27734 ft 436 kts 290°
2026-05-04 13:30 52.22819 6.94820 27093 ft 441 kts 304°
2026-05-04 13:30 52.24818 6.90972 26499 ft 436 kts 305°
2026-05-04 13:30 52.26753 6.87235 25873 ft 432 kts 304°
2026-05-04 13:31 52.28666 6.83465 25255 ft 428 kts 304°
2026-05-04 13:31 52.30542 6.79711 24637 ft 423 kts 304°
2026-05-04 13:31 52.32394 6.75980 24031 ft 419 kts 304°
2026-05-04 13:31 52.34201 6.72332 23452 ft 416 kts 305°
2026-05-04 13:32 52.36017 6.68671 22858 ft 412 kts 305°
2026-05-04 13:32 52.37817 6.65043 22256 ft 409 kts 305°
2026-05-04 13:32 52.39609 6.61427 21655 ft 406 kts 305°
2026-05-04 13:32 52.41386 6.57834 21052 ft 403 kts 305°
2026-05-04 13:33 52.43144 6.54275 20463 ft 400 kts 306°
2026-05-04 13:33 52.44896 6.50722 19837 ft 398 kts 306°
2026-05-04 13:33 52.46386 6.47028 19264 ft 390 kts 291°
2026-05-04 13:33 52.47139 6.42822 18692 ft 382 kts 276°
2026-05-04 13:34 52.47389 6.38515 18137 ft 377 kts 272°
2026-05-04 13:34 52.47572 6.34232 17551 ft 375 kts 272°
2026-05-04 13:34 52.47748 6.29966 16977 ft 373 kts 272°
2026-05-04 13:34 52.47934 6.25720 16406 ft 371 kts 272°
2026-05-04 13:35 52.48128 6.21514 15840 ft 369 kts 273°
2026-05-04 13:35 52.48527 6.13198 14726 ft 364 kts 273°
2026-05-04 13:35 52.48728 6.09069 14170 ft 362 kts 273°
2026-05-04 13:36 52.48925 6.04961 13618 ft 360 kts 273°
2026-05-04 13:36 52.49119 6.00875 13087 ft 357 kts 273°
2026-05-04 13:36 52.49307 5.96886 12575 ft 354 kts 273°
2026-05-04 13:36 52.49495 5.92864 12025 ft 352 kts 273°
2026-05-04 13:37 52.49682 5.88863 11476 ft 351 kts 273°
2026-05-04 13:37 52.49865 5.84885 11035 ft 346 kts 273°
2026-05-04 13:37 52.50043 5.81026 10902 ft 333 kts 273°
2026-05-04 13:37 52.50156 5.78551 10788 ft 325 kts 273°
2026-05-04 13:38 52.50375 5.73735 10635 ft 305 kts 273°
2026-05-04 13:38 52.50526 5.70394 10524 ft 289 kts 273°
2026-05-04 13:38 52.50670 5.67188 10411 ft 275 kts 273°
2026-05-04 13:38 52.50807 5.64100 10092 ft 268 kts 273°
2026-05-04 13:39 52.50941 5.61053 9598 ft 268 kts 273°
2026-05-04 13:39 52.51034 5.57993 9073 ft 268 kts 264°
2026-05-04 13:39 52.50523 5.55080 8602 ft 265 kts 243°
2026-05-04 13:39 52.49640 5.52473 8157 ft 263 kts 239°
2026-05-04 13:40 52.48708 5.49881 7669 ft 263 kts 239°
2026-05-04 13:40 52.47774 5.47299 7236 ft 261 kts 239°
2026-05-04 13:40 52.46852 5.44740 6830 ft 258 kts 239°
2026-05-04 13:40 52.45945 5.42211 6367 ft 257 kts 239°
2026-05-04 13:41 52.45037 5.39671 5909 ft 257 kts 239°
2026-05-04 13:41 52.44142 5.37163 5614 ft 257 kts 239°
2026-05-04 13:41 52.43245 5.34649 5360 ft 255 kts 240°
2026-05-04 13:42 52.41462 5.29645 4782 ft 254 kts 240°
2026-05-04 13:42 52.40578 5.27167 4653 ft 246 kts 240°
2026-05-04 13:42 52.39743 5.24826 4562 ft 228 kts 240°
2026-05-04 13:42 52.38960 5.22634 4264 ft 220 kts 240°
2026-05-04 13:43 52.38187 5.20467 3798 ft 220 kts 240°
2026-05-04 13:43 52.37425 5.18334 3443 ft 215 kts 240°
2026-05-04 13:43 52.36705 5.16318 3345 ft 196 kts 240°
2026-05-04 13:43 52.36029 5.14431 3137 ft 189 kts 240°
2026-05-04 13:44 52.35366 5.12579 2839 ft 188 kts 240°
2026-05-04 13:44 52.34701 5.10729 2550 ft 188 kts 240°
2026-05-04 13:44 52.34043 5.08894 2271 ft 186 kts 240°
2026-05-04 13:44 52.33397 5.07096 2054 ft 184 kts 240°
2026-05-04 13:45 52.32864 5.05257 1982 ft 173 kts 260°
2026-05-04 13:45 52.32741 5.03367 2008 ft 166 kts 264°
2026-05-04 13:45 52.32631 5.01511 1996 ft 162 kts 266°
2026-05-04 13:45 52.32549 4.99654 1999 ft 164 kts 266°
2026-05-04 13:46 52.32477 4.97787 1994 ft 164 kts 267°
2026-05-04 13:46 52.32410 4.95934 1899 ft 167 kts 267°
2026-05-04 13:46 52.32343 4.94031 1716 ft 167 kts 267°
2026-05-04 13:46 52.32276 4.92159 1510 ft 160 kts 267°
2026-05-04 13:47 52.32212 4.90431 1288 ft 148 kts 267°
2026-05-04 13:47 52.32155 4.88780 1102 ft 144 kts 267°
2026-05-04 13:47 52.32098 4.87132 916 ft 145 kts 267°
2026-05-04 13:47 52.32039 4.85494 732 ft 147 kts 266°
2026-05-04 13:48 52.31974 4.83809 529 ft 150 kts 268°
2026-05-04 13:48 52.31930 4.82112 352 ft 149 kts 267°
2026-05-04 13:48 52.31857 4.80423 152 ft 149 kts 267°
2026-05-04 13:48 52.31802 4.78741 3 ft 145 kts 267°
2026-05-04 13:49 52.31758 4.77384 -3 ft 90 kts 268°
2026-05-04 13:49 52.31626 4.76716 -2 ft 29 kts 232°
2026-05-04 13:49 52.31511 4.76501 -2 ft 13 kts 206°
2026-05-04 13:49 52.31441 4.76553 -2 ft 13 kts 113°
2026-05-04 13:50 52.31463 4.76689 -2 ft 13 kts 68°
2026-05-04 13:50 52.31473 4.76827 -2 ft 12 kts 80°
2026-05-04 13:50 52.31482 4.76962 -2 ft 12 kts 85°
2026-05-04 13:50 52.31483 4.77100 -2 ft 12 kts 92°
2026-05-04 13:51 52.31449 4.77225 -2 ft 12 kts 129°
2026-05-04 13:51 52.31395 4.77330 -2 ft 12 kts 129°
2026-05-04 13:51 52.31339 4.77426 -2 ft 12 kts 135°
2026-05-04 13:51 52.31279 4.77505 -2 ft 11 kts 172°
2026-05-04 13:52 52.31071 4.77492 -2 ft 19 kts 183°
2026-05-04 13:52 52.30944 4.77484 -2 ft 18 kts 181°
2026-05-04 13:52 52.30821 4.77472 -2 ft 17 kts 185°
2026-05-04 13:53 52.30703 4.77457 -2 ft 17 kts 184°
2026-05-04 13:53 52.30616 4.77359 -2 ft 16 kts 237°
2026-05-04 13:53 52.30557 4.77208 -2 ft 15 kts 238°
2026-05-04 13:54 52.30448 4.76923 -2 ft 14 kts 237°
2026-05-04 13:54 52.30396 4.76791 -2 ft 14 kts 237°
2026-05-04 13:54 52.30397 4.76546 -2 ft 13 kts 324°
2026-05-04 13:55 52.30465 4.76472 -2 ft 11 kts 334°
2026-05-04 13:55 52.30505 4.76545 -2 ft 2 kts 58°
2026-05-04 13:55 52.30508 4.76552 -2 ft 0 kts 59°